Location: Dal�� Lhota
(48.7500°N, 14.0167°E)
Time: 21:23:27
(UTC+00:00)

Transit 2A - Pass Details

Date: 04 August 2021
Orbit: 594 x 964 km, 66.7° (Epoch: 26 September)

Event Time Altitude Azimuth Distance (km) Brightness Sun altitude
Rises 06:58:31 0° 271° (W) 2,910 8.5 30.6°
Reaches altitude 10° 07:01:29 10° 292° (WNW) 2,055 7.8 31.1°
Maximum altitude 07:04:30 17° 333° (NNW) 1,702 7.6 31.6°
Drops below altitude 10° 07:07:41 10° 14° (NNE) 2,192 8.5 32.1°
Sets 07:11:00 0° 34° (NE) 3,197 9.5 32.6°
